Theta_e
348 350 349 346 346 346 346 349 350 349 349 345 346 344 341 346 344 344 347 347 350 353 353 352 351 351 350 351 351 351 349 349 351 349 347 347 348 347 336 343 342 344 342
351 350 348 350 345 347 350 348 347 347 344 345 346 342 348 352 347 346 348 351 353 352 352 352 352 351 351 351 350 350 349 350 348 343 348 348 346 345 344 345 342 342 342
350 349 349 346 347 345 346 346 345 344 347 346 345 346 351 348 350 349 350 353 353 353 350 349 351 351 351 350 350 350 349 345 343 340 346 346 344 344 346 345 338 346 345
348 350 349 346 348 351 350 350 346 348 350 345 343 343 340 347 353 348 351 352 351 351 348 348 350 350 351 351 350 350 346 344 344 344 349 343 344 335 347 346 341 346 347
349 350 349 346 347 350 352 350 346 347 347 343 341 340 341 352 353 351 352 351 348 346 345 346 350 351 351 352 351 350 347 344 344 347 347 343 344 336 344 345 340 345 345
349 350 347 345 345 350 352 351 348 350 348 342 340 341 351 354 352 351 352 350 347 349 348 350 351 351 352 352 352 345 344 341 347 348 347 343 343 336 345 346 342 347 345
352 350 349 346 346 349 350 353 354 352 346 342 341 345 350 353 352 353 351 349 343 346 349 352 352 352 351 352 351 345 344 345 350 350 350 349 344 339 344 343 343 345 341
352 351 351 348 349 351 353 354 348 346 344 344 345 346 348 351 349 348 345 347 348 350 352 353 349 344 345 347 345 344 342 343 351 350 349 350 343 346 346 346 342 342 347
351 352 353 353 353 353 354 348 348 352 349 347 346 348 345 344 342 338 340 343 345 352 353 352 345 344 343 341 343 341 342 347 352 349 350 348 344 346 349 346 349 346 345
353 351 352 352 352 352 352 350 354 350 344 343 347 342 341 339 337 341 344 350 345 344 347 346 344 342 342 343 342 342 345 349 352 348 349 349 345 344 349 348 346 347 346
352 351 351 350 351 353 353 355 353 352 348 349 344 342 341 351 352 353 353 345 345 343 344 343 342 342 345 349 347 345 347 350 348 347 350 345 344 345 350 349 347 343 346
352 351 351 352 351 350 348 352 350 348 348 348 348 352 348 350 351 350 350 345 344 343 344 343 345 347 349 350 350 347 347 346 349 350 350 345 343 344 347 351 348 349 345
351 352 351 351 354 350 350 350 350 350 350 349 351 351 349 351 350 351 352 352 352 349 351 351 350 351 350 347 346 346 345 345 342 348 348 347 344 342 346 349 350 348 345
351 350 349 352 352 350 350 350 349 348 347 348 350 352 352 351 350 351 352 350 350 350 350 349 350 350 348 348 347 346 345 343 341 341 349 347 344 342 347 350 350 348 348
350 350 349 351 353 352 354 349 350 348 348 348 348 351 351 349 350 351 350 351 352 349 350 349 348 350 348 348 347 346 344 341 341 339 341 344 343 342 345 350 348 347 349
349 350 350 352 354 354 353 355 351 350 349 348 349 349 352 351 351 353 351 350 350 350 350 350 351 351 350 348 346 344 340 338 336 336 336 344 341 343 342 348 350 346 349
350 350 351 352 354 355 355 355 353 351 349 350 348 350 352 354 353 354 350 351 349 350 353 352 350 351 350 348 340 338 336 336 336 338 338 336 343 344 343 341 343 343 345
349 350 351 351 352 354 354 355 353 351 351 350 349 351 353 354 355 354 351 350 349 350 350 351 350 348 344 339 336 335 335 337 339 339 337 338 336 337 344 343 342 343 342
349 350 352 352 352 353 355 355 354 353 352 353 353 350 354 354 354 353 350 351 353 351 351 351 349 345 340 337 334 332 337 338 339 338 338 339 341 340 338 342 341 341 344
350 351 353 353 352 353 354 356 354 354 354 353 351 352 355 354 354 354 351 353 352 351 351 348 346 342 340 338 336 335 338 339 339 338 339 338 338 341 342 342 345 345 343
350 353 354 354 354 354 355 356 355 354 353 351 350 353 357 355 355 354 354 351 353 350 349 345 343 337 337 339 338 338 338 338 339 338 338 335 335 336 340 342 344 347 347
351 353 355 356 357 357 357 355 354 351 350 350 349 351 354 354 356 354 353 350 351 348 348 344 340 338 336 340 339 336 339 339 337 338 337 333 333 333 336 339 342 344 344
351 353 357 359 359 359 357 355 356 357 355 354 350 353 353 353 353 354 354 353 352 347 338 342 341 340 338 338 339 338 339 342 337 336 337 333 331 331 332 334 335 335 337
351 354 356 359 360 360 359 356 356 354 350 347 347 346 349 351 350 351 352 348 348 341 338 340 339 341 336 337 336 337 338 338 340 341 334 333 330 330 329 328 329 330 329
351 353 356 360 361 361 361 356 356 355 348 348 347 350 350 350 348 348 347 348 345 337 340 343 340 341 341 337 335 335 337 335 335 334 334 333 332 330 329 328 327 326 329
350 352 355 361 363 362 362 360 359 358 351 349 349 350 346 346 348 347 347 347 341 339 342 341 340 340 339 340 338 336 333 333 333 332 332 332 332 331 330 329 329 328 327
Wind_Speed
10 16 21 23 22 23 23 20 20 20 20 24 23 21 19 17 17 17 17 16 15 15 14 15 14 14 13 13 12 11 10 9 8 8 9 10 9 8 6 5 3 7 9
18 19 21 19 20 20 19 18 20 19 20 21 20 19 17 15 16 16 15 14 14 14 13 13 12 13 12 12 11 10 8 7 6 4 6 10 12 8 6 7 10 11 11
23 21 19 18 18 19 18 19 20 19 18 18 17 16 14 15 14 13 13 12 12 12 11 11 11 11 11 11 11 9 7 5 4 3 3 6 11 9 8 7 9 11 12
25 21 17 17 18 16 15 16 18 16 15 15 14 13 12 12 11 12 11 10 10 10 10 10 10 10 10 9 9 9 7 4 3 2 6 6 11 11 9 8 11 13 11
23 21 17 17 16 15 15 16 17 15 14 13 12 10 9 9 10 10 9 9 9 9 9 9 9 9 8 7 7 6 5 5 4 2 5 5 11 10 9 9 10 11 9
20 18 18 16 15 14 14 16 15 14 13 12 10 8 8 8 8 8 8 8 8 7 8 8 9 8 7 6 6 5 4 3 2 5 6 6 9 9 9 9 9 10 11
18 18 17 15 14 14 14 15 14 13 12 10 7 7 7 6 6 6 6 6 6 6 7 8 8 8 7 5 5 5 4 3 2 2 6 8 10 9 9 9 9 9 11
19 19 16 15 15 14 14 14 14 12 10 9 8 7 5 4 4 4 4 5 5 4 5 6 7 7 7 5 5 6 6 3 4 3 4 9 6 8 9 9 9 9 9
18 20 17 15 14 13 14 15 13 10 10 9 8 6 4 3 2 2 2 3 3 3 5 6 6 6 6 5 5 5 5 5 1 5 3 4 6 8 7 9 9 8 9
23 20 18 17 15 14 13 14 11 9 9 7 7 6 5 4 1 0 2 2 4 2 2 3 3 4 4 4 5 6 4 5 4 6 5 6 3 6 7 8 8 10 10
17 17 17 19 17 15 14 12 11 9 9 7 6 6 4 7 5 4 4 6 6 3 2 2 3 4 1 2 4 9 5 3 1 2 9 3 2 5 8 8 8 9 11
17 20 20 21 16 16 15 12 11 10 9 9 8 8 5 5 3 3 4 4 3 2 2 0 4 3 4 5 5 7 6 9 7 6 8 3 2 3 7 10 9 10 10
18 19 23 19 20 16 17 12 13 12 13 10 8 8 7 3 6 4 6 5 4 2 6 4 4 5 5 7 9 9 7 9 7 3 8 3 2 3 7 11 11 10 10
23 19 18 19 17 16 14 14 13 13 11 10 10 9 7 6 7 4 5 4 4 5 4 4 1 5 7 7 7 7 8 6 8 5 4 4 3 3 8 10 12 11 11
20 19 19 19 17 15 11 13 12 10 11 10 8 9 9 9 4 5 5 6 6 7 7 6 8 5 6 9 10 7 8 7 6 7 4 4 4 4 7 9 9 12 12
20 20 19 19 18 16 15 9 10 9 9 10 9 9 8 9 3 6 8 7 6 7 8 6 6 9 7 7 6 5 10 10 8 8 8 4 4 2 7 10 10 9 12
21 20 20 19 19 17 16 14 13 13 12 12 11 9 8 8 8 8 8 7 10 5 6 7 5 5 8 10 6 7 9 7 8 6 7 7 5 4 3 8 10 10 11
22 22 21 20 20 19 18 16 16 15 12 13 10 9 10 10 10 9 11 10 7 7 8 5 8 9 10 7 9 8 7 6 3 5 3 3 4 4 7 6 8 8 11
23 22 22 20 20 20 18 17 16 15 14 10 10 11 11 10 12 11 12 8 7 8 8 6 8 6 7 9 9 6 5 3 3 5 2 1 4 2 3 6 3 7 8
24 22 22 22 20 18 17 17 13 14 12 14 14 10 9 10 11 12 11 8 8 7 8 6 4 8 9 6 9 5 2 1 2 2 2 4 4 2 3 2 7 7 6
24 24 23 23 21 20 18 16 18 19 18 15 13 9 8 10 11 9 10 12 7 10 4 6 6 7 6 2 9 5 5 5 3 2 3 4 4 2 3 4 7 4 6
27 26 25 24 23 23 20 21 20 18 16 16 15 14 12 12 11 11 10 8 7 5 2 3 4 6 5 2 8 6 2 7 5 6 5 3 4 3 3 3 3 4 5
29 28 27 27 25 24 23 21 14 11 10 6 12 11 11 11 11 10 7 8 3 3 6 3 3 2 9 2 1 7 2 3 7 7 6 5 3 3 3 3 4 2 2
31 30 27 27 26 24 24 21 20 17 17 17 14 13 11 11 11 11 9 7 6 5 2 2 3 4 2 4 1 3 3 6 5 3 7 6 4 4 2 2 2 2 1
31 30 29 28 27 26 25 24 20 21 16 11 11 6 10 9 12 11 10 8 6 6 6 2 2 3 2 5 2 1 2 3 1 6 6 8 3 5 1 3 3 2 2
32 31 30 30 28 28 26 26 21 18 20 15 14 12 12 13 12 12 12 10 8 7 6 6 5 5 5 2 4 1 4 3 1 3 5 6 5 7 4 5 5 5 5
Wind_Direction
129 127 126 126 132 131 128 117 116 121 121 123 118 112 105 100 99 94 90 89 86 82 80 75 70 64 59 58 58 66 72 78 89 90 93 95 84 72 75 85 75 112 110
132 126 119 119 125 122 122 122 122 125 123 127 119 106 96 95 91 88 87 85 83 81 78 72 64 60 56 55 55 59 70 76 80 72 138 114 90 69 61 77 75 111 114
132 130 121 122 122 125 128 130 129 129 129 125 116 107 99 92 88 86 84 85 82 78 69 64 57 55 50 50 49 56 61 73 83 69 234 183 87 74 70 73 82 120 115
134 133 126 128 126 124 130 134 133 130 127 126 121 115 103 90 87 82 82 83 77 69 60 54 50 45 45 39 46 47 45 69 79 342 322 71 94 84 89 87 102 109 124
140 138 135 133 131 128 129 137 143 138 134 135 126 115 100 93 85 83 81 78 69 62 53 41 33 27 33 30 33 43 47 54 68 29 61 74 90 87 106 103 110 113 126
136 135 143 140 139 139 138 140 145 143 142 140 130 111 103 97 87 85 81 68 60 57 44 28 17 12 18 23 27 35 34 47 60 84 102 90 86 100 119 110 128 115 120
137 141 145 146 149 150 145 140 140 140 140 146 139 126 117 100 95 95 84 57 50 43 28 14 6 3 13 18 25 30 27 58 34 108 151 89 106 114 126 128 132 129 131
147 145 147 151 153 152 149 142 138 135 142 149 148 143 137 121 113 102 65 46 44 29 7 358 356 7 14 20 32 28 35 61 35 102 145 132 105 130 132 139 130 139 140
146 137 142 145 151 151 153 151 143 142 147 149 156 165 171 167 138 67 50 26 27 16 353 351 355 5 13 23 23 16 29 73 140 110 85 127 128 139 152 150 157 145 147
163 142 149 147 149 152 156 167 160 158 161 165 177 182 189 195 172 344 6 318 338 342 359 354 345 358 10 26 17 357 339 303 247 76 100 116 117 151 159 165 161 160 158
136 157 153 153 153 155 160 172 174 179 185 192 188 195 209 226 222 207 221 288 305 277 290 348 345 3 344 8 39 5 324 309 290 120 141 113 118 162 175 176 180 170 173
156 175 155 145 158 162 164 168 177 187 193 197 200 184 239 233 274 270 260 300 324 270 215 191 18 334 291 250 236 331 339 344 276 141 130 91 86 186 193 195 192 193 184
157 187 154 167 177 171 159 170 182 188 198 201 211 227 239 265 247 249 261 239 212 295 241 232 309 294 302 337 332 334 337 314 331 57 149 68 318 247 208 198 202 203 199
168 175 170 164 175 181 170 190 189 197 206 211 206 217 253 241 251 258 340 293 313 346 294 285 127 326 308 318 312 327 321 317 336 320 137 29 340 244 203 203 204 199 204
174 176 179 175 182 188 199 195 209 205 205 219 206 211 233 248 236 278 283 289 301 295 327 298 299 320 292 305 316 330 314 307 307 290 307 297 340 236 203 209 212 213 205
180 181 181 180 184 195 202 221 223 211 225 227 231 214 205 248 269 268 245 272 274 293 315 305 319 319 316 313 268 292 308 303 306 295 284 268 288 274 220 206 214 225 214
184 184 187 192 190 197 205 207 219 229 226 234 228 226 225 234 250 259 276 269 273 273 277 280 303 278 270 259 299 310 301 294 304 315 292 282 218 229 192 215 213 223 226
191 190 195 195 194 199 207 209 219 227 231 243 229 212 218 238 244 252 256 257 270 282 259 304 289 283 278 335 307 298 314 300 343 292 264 306 295 265 214 209 208 226 227
197 193 197 201 201 197 206 213 219 227 233 238 240 246 227 223 243 247 264 271 284 277 289 268 273 281 313 308 301 293 298 320 327 64 35 269 72 280 339 174 230 251 227
193 197 200 203 208 204 206 215 231 227 229 233 238 227 229 238 240 238 254 254 260 255 258 263 340 311 311 278 305 295 302 326 339 54 126 109 59 326 43 347 228 200 204
197 198 199 203 200 205 203 204 216 221 226 227 240 225 217 223 235 233 241 231 242 253 244 332 300 290 301 21 281 256 169 173 182 213 26 28 23 23 22 47 320 90 147
198 196 196 200 200 200 205 217 218 220 220 222 241 222 229 238 222 225 236 251 230 278 213 275 292 311 273 112 312 287 231 151 222 101 46 34 1 17 58 66 46 357 36
199 200 196 197 199 201 213 206 217 239 252 237 234 225 227 222 224 227 234 243 167 243 264 148 227 292 303 348 7 318 279 78 206 127 153 83 351 39 53 79 74 49 48
203 199 202 196 201 203 205 218 202 211 218 221 225 218 190 200 213 211 215 217 220 252 179 193 245 286 261 317 4 144 350 352 334 137 165 155 179 174 6 322 113 115 41
204 202 200 196 199 206 202 212 201 220 216 218 212 173 199 193 208 207 205 204 212 220 196 245 218 227 234 287 249 305 104 226 115 326 321 144 197 185 232 281 330 288 204
207 203 200 193 198 201 203 204 219 208 227 207 204 189 200 202 198 203 200 199 207 215 200 217 222 224 257 280 299 15 274 309 339 324 302 307 318 277 227 288 268 287 276